GW3586 Weather Reports


Display with metric or nautical units.
time (UTC)temp
F
wind
direction
speed
MPH
gust
MPH
rain 1hr
in
rain 24hr
in
rain mn
in
humidity
%
barometer
mb
20260505003503 69 188 2.0 4.0 0.00 0.00 0.00 49 1009.0
20260505002803 70 253 1.0 4.0 0.00 0.00 0.00 48 1009.0
20260505002103 70 254 0.0 4.0 0.00 0.00 0.00 47 1008.9
20260505001403 71 250 1.0 3.0 0.00 0.00 0.00 47 1008.8
20260505000703 71 252 1.0 5.0 0.00 0.00 0.00 46 1008.7
20260505000004 72 249 0.0 5.0 0.00 0.00 0.00 46 1008.6
20260504235817 72 237 0.0 3.0 0.00 0.00 0.00 46 1008.6
20260504234903 72 257 0.0 5.0 0.00 0.00 0.00 46 1008.6
20260504234203 72 262 2.0 6.0 0.00 0.00 0.00 45 1008.5
20260504233503 73 248 2.0 5.0 0.00 0.00 0.00 44 1008.4
20260504232803 73 259 2.0 10.0 0.00 0.00 0.00 43 1008.4
20260504232318 74 279 2.0 13.0 0.00 0.00 0.00 44 1008.3
20260504231403 74 277 1.0 11.0 0.00 0.00 0.00 44 1008.2
20260504230703 74 267 1.0 11.0 0.00 0.00 0.00 43 1008.1
20260504230003 74 265 2.0 10.0 0.00 0.00 0.00 42 1008.1
20260504225817 75 267 2.0 10.0 0.00 0.00 0.00 42 1008.1
20260504224903 75 261 3.0 7.0 0.00 0.00 0.00 43 1008.0
20260504224203 75 268 3.0 11.0 0.00 0.00 0.00 42 1008.1
20260504223503 75 276 3.0 13.0 0.00 0.00 0.00 43 1008.1
20260504222803 75 269 3.0 13.0 0.00 0.00 0.00 42 1008.1
20260504222103 75 271 7.0 12.0 0.00 0.00 0.00 43 1008.2
20260504221403 75 268 10.0 12.0 0.00 0.00 0.00 42 1008.1
20260504220703 76 248 3.0 12.0 0.00 0.00 0.00 42 1008.0
20260504220004 77 261 2.0 12.0 0.00 0.00 0.00 40 1007.8
20260504215603 77 269 2.0 8.0 0.00 0.00 0.00 39 1007.8
20260504214904 76 254 3.0 8.0 0.00 0.00 0.00 40 1007.9
20260504214419 76 255 2.0 8.0 0.00 0.00 0.00 40 1007.9
20260504213503 76 265 4.0 8.0 0.00 0.00 0.00 40 1007.8
20260504213017 76 261 2.0 20.0 0.00 0.00 0.00 40 1007.9
20260504212317 76 262 4.0 8.0 0.00 0.00 0.00 39 1007.8
20260504211403 75 265 2.0 14.0 0.00 0.00 0.00 41 1008.1
20260504210703 75 279 4.0 8.0 0.00 0.00 0.00 40 1008.2
20260504210218 76 262 7.0 15.0 0.00 0.00 0.00 39 1008.1
20260504205818 75 267 2.0 15.0 0.00 0.00 0.00 40 1008.3
20260504204904 76 267 9.0 12.0 0.00 0.00 0.00 39 1008.3
20260504204203 76 256 0.0 12.0 0.00 0.00 0.00 39 1008.4
20260504203503 75 174 3.0 8.0 0.00 0.00 0.00 40 1008.6
20260504202803 75 194 4.0 10.0 0.00 0.00 0.00 40 1008.5
20260504202103 75 259 2.0 11.0 0.00 0.00 0.00 42 1008.7
20260504201403 74 283 2.0 19.0 0.00 0.00 0.00 43 1008.9
20260504200703 74 271 3.0 19.0 0.00 0.00 0.00 43 1008.9
20260504200004 74 271 5.0 12.0 0.00 0.00 0.00 42 1009.0
20260504195603 74 273 2.0 12.0 0.00 0.00 0.00 42 1009.1
20260504194903 74 263 4.0 13.0 0.00 0.00 0.00 43 1009.2
20260504194203 75 250 2.0 13.0 0.00 0.00 0.00 42 1009.2
20260504193503 75 236 2.0 11.0 0.00 0.00 0.00 40 1009.3
20260504192803 74 251 2.0 11.0 0.00 0.00 0.00 43 1009.5
20260504192317 73 260 1.0 8.0 0.00 0.00 0.00 44 1009.7
20260504191403 73 269 2.0 15.0 0.00 0.00 0.00 44 1010.0
20260504190703 73 269 1.0 11.0 0.00 0.00 0.00 44 1010.1
20260504190004 74 227 4.0 7.0 0.00 0.00 0.00 43 1010.1
20260504185817 73 241 1.0 8.0 0.00 0.00 0.00 45 1010.2
20260504184903 73 275 5.0 10.0 0.00 0.00 0.00 46 1010.4
20260504184203 73 253 2.0 8.0 0.00 0.00 0.00 47 1010.5
20260504183503 73 169 3.0 6.0 0.00 0.00 0.00 45 1010.5
20260504182803 72 269 2.0 11.0 0.00 0.00 0.00 45 1010.7
20260504182103 72 205 3.0 11.0 0.00 0.00 0.00 45 1010.8
20260504181403 72 242 8.0 8.0 0.00 0.00 0.00 46 1010.8
20260504180703 72 169 1.0 7.0 0.00 0.00 0.00 45 1010.9
20260504180004 71 210 7.0 11.0 0.00 0.00 0.00 46 1011.1
20260504175603 71 174 1.0 11.0 0.00 0.00 0.00 45 1011.1
20260504174903 69 157 1.0 9.0 0.00 0.00 0.00 49 1011.5
20260504174203 69 132 8.0 13.0 0.00 0.00 0.00 49 1011.6
20260504173503 70 143 6.0 10.0 0.00 0.00 0.00 47 1011.7
20260504172803 69 163 3.0 10.0 0.00 0.00 0.00 46 1011.6
20260504172318 69 161 3.0 9.0 0.00 0.00 0.00 47 1011.6
20260504171403 69 213 3.0 10.0 0.00 0.00 0.00 47 1011.8
20260504170703 69 219 7.0 10.0 0.00 0.00 0.00 48 1011.9
20260504150703 62 323 5.0 8.0 0.00 0.00 0.00 50 1014.5
20260504140703 58 322 3.0 4.0 0.00 0.00 0.00 58 1015.3
20260504130704 55 340 2.0 3.0 0.00 0.00 0.00 59 1014.9
20260504130219 55 358 1.0 2.0 0.00 0.00 0.00 60 1014.7
20260504110703 47 32 0.0 4.0 0.00 0.00 0.00 72 1015.1
20260504081403 44 71 1.0 2.0 0.00 0.00 0.00 78 1016.0
20260504080703 44 35 0.0 2.0 0.00 0.00 0.00 79 1016.3
20260504050703 48 35 0.0 2.0 0.00 0.00 0.00 68 1015.8
20260504050218 48 25 1.0 3.0 0.00 0.00 0.00 67 1015.7
20260504045603 48 11 0.0 3.0 0.00 0.00 0.00 66 1015.7
20260504045118 48 14 1.0 3.0 0.00 0.00 0.00 66 1015.6
20260504044204 49 32 1.0 2.0 0.00 0.00 0.00 65 1015.6
20260504043504 49 24 2.0 3.0 0.00 0.00 0.00 62 1015.4
20260504042804 49 28 2.0 3.0 0.00 0.00 0.00 62 1015.4
20260504042104 49 27 2.0 3.0 0.00 0.00 0.00 62 1015.3
20260504041403 50 35 2.0 3.0 0.00 0.00 0.00 62 1015.2
20260504040703 50 38 0.0 3.0 0.00 0.00 0.00 59 1015.1
20260504040220 51 36 2.0 2.0 0.00 0.00 0.00 58 1015.1
20260504035604 51 21 2.0 3.0 0.00 0.00 0.00 56 1015.1
20260504034904 51 26 1.0 3.0 0.00 0.00 0.00 56 1015.0
20260504034204 51 39 2.0 3.0 0.00 0.00 0.00 56 1014.8
20260504033718 51 35 0.0 2.0 0.00 0.00 0.00 56 1015.0
20260504032804 50 29 1.0 2.0 0.00 0.00 0.00 56 1014.9
20260504032104 50 35 2.0 2.0 0.00 0.00 0.00 59 1015.1
20260504031404 50 34 2.0 2.0 0.00 0.00 0.00 59 1015.0
20260504030704 51 22 1.0 2.0 0.00 0.00 0.00 57 1015.1
20260504030004 51 5 0.0 2.0 0.00 0.00 0.00 55 1015.1
20260504025604 51 1 1.0 2.0 0.00 0.00 0.00 55 1015.0
20260504024904 51 4 1.0 2.0 0.00 0.00 0.00 55 1015.0
20260504024203 51 26 1.0 2.0 0.00 0.00 0.00 55 1014.9
20260504023503 52 29 0.0 2.0 0.00 0.00 0.00 55 1014.9
20260504022804 52 37 1.0 2.0 0.00 0.00 0.00 55 1014.9
20260504022104 53 11 1.0 3.0 0.00 0.00 0.00 52 1014.9
20260504021403 53 17 1.0 3.0 0.00 0.00 0.00 50 1014.8
20260504020703 54 78 0.0 2.0 0.00 0.00 0.00 51 1014.6
20260504020003 54 91 1.0 3.0 0.00 0.00 0.00 50 1014.4
20260504015604 54 90 1.0 3.0 0.00 0.00 0.00 50 1014.4
20260504015117 54 81 0.0 3.0 0.00 0.00 0.00 51 1014.6
20260504014204 53 60 1.0 3.0 0.00 0.00 0.00 53 1014.7
20260504013503 53 59 1.0 3.0 0.00 0.00 0.00 54 1014.8
20260504012803 53 42 1.0 2.0 0.00 0.00 0.00 54 1014.9
20260504012103 54 11 0.0 1.0 0.00 0.00 0.00 52 1014.9
20260504011403 54 36 0.0 2.0 0.00 0.00 0.00 52 1014.8
20260504010703 54 52 1.0 2.0 0.00 0.00 0.00 51 1014.6
20260504010004 55 30 0.0 1.0 0.00 0.00 0.00 51 1014.5
20260504005604 55 19 0.0 1.0 0.00 0.00 0.00 50 1014.4
20260504004903 56 40 1.0 2.0 0.00 0.00 0.00 50 1014.2
20260504004203 57 42 0.0 2.0 0.00 0.00 0.00 46 1013.9